Wind_Speed
7 7 6 6 6 5 5 4 4 3 4 5 6 7 6 6 7 8 9 10 10 10 11 11 12 12 13 14 14 14 15 15 16 17 17 17 17 17 17 18 18 18 19 19 19 18 18 17 16
8 7 7 7 7 7 6 5 5 5 5 5 7 7 7 7 8 8 9 10 10 11 11 11 12 13 14 14 15 16 16 16 17 17 18 18 18 19 20 20 20 20 20 20 20 19 19 18 18
8 8 7 7 8 8 6 6 6 6 6 6 7 7 8 8 8 9 9 10 11 11 12 12 13 13 14 15 16 17 18 18 18 18 18 19 19 20 21 21 21 21 21 21 21 20 20 19 18
9 8 8 8 8 7 7 6 7 7 6 7 8 8 8 9 9 9 9 10 11 12 12 13 13 14 15 16 17 18 18 19 19 19 19 19 20 21 21 21 22 22 22 22 22 21 20 20 19
10 10 9 9 8 7 8 8 8 7 7 8 8 8 8 9 9 9 10 11 12 13 13 14 15 15 16 16 17 17 18 19 20 20 20 21 21 21 22 21 22 23 23 23 23 22 21 21 21
12 11 10 10 8 9 9 9 9 8 8 9 9 9 8 9 9 10 10 11 12 12 13 14 14 15 16 17 17 17 18 19 20 20 21 21 22 23 24 23 22 23 24 24 24 23 23 23 23
13 12 12 10 10 10 9 9 9 9 9 10 9 9 9 9 10 10 11 11 11 12 12 13 14 15 15 16 17 17 17 18 19 19 20 21 22 23 24 24 25 24 24 25 25 24 23 24 24
15 14 12 11 11 11 10 10 10 10 10 10 10 9 9 10 10 10 10 11 11 11 12 12 13 14 14 15 16 16 17 17 17 18 19 20 21 22 23 24 24 26 25 25 25 25 24 24 24
16 15 13 12 11 11 11 11 10 11 11 10 10 10 10 9 9 9 10 10 10 11 11 11 12 13 14 14 15 16 16 17 17 17 18 19 20 21 22 22 23 24 25 26 25 25 26 24 24
17 15 15 13 12 11 11 12 11 12 11 10 10 10 9 9 9 9 9 9 10 10 10 11 13 14 15 16 16 16 16 16 17 17 17 18 19 20 21 21 21 23 24 25 25 25 26 26 25
17 16 15 13 12 12 12 12 11 11 9 9 8 7 8 8 8 8 8 9 9 9 10 12 14 15 16 17 17 17 17 17 17 17 17 17 18 19 19 20 20 21 22 22 23 24 25 26 25
18 17 15 13 12 12 12 12 11 10 9 9 8 7 8 8 8 8 8 8 9 9 11 13 14 16 16 17 18 18 18 18 17 17 17 17 18 18 19 19 19 20 21 21 22 22 24 25 25
18 17 17 14 13 12 12 12 11 10 10 9 9 8 8 8 8 7 7 7 8 9 11 13 15 15 16 17 18 18 18 18 18 18 18 18 18 18 18 19 19 19 20 21 22 22 23 24 25
18 16 15 14 13 13 12 12 11 10 9 9 9 8 7 7 7 6 6 7 9 10 12 13 14 15 17 18 18 18 18 19 19 19 19 19 19 19 18 18 18 18 18 19 21 22 23 24 25
18 17 16 14 14 13 13 12 11 11 10 9 8 8 7 6 6 6 6 7 9 11 12 13 15 16 17 18 18 19 19 19 19 19 19 19 19 19 18 18 18 18 17 17 19 20 21 23 24
19 17 16 14 13 13 13 12 11 11 9 8 8 7 7 6 5 5 6 7 9 11 12 14 15 16 17 18 19 19 19 19 19 19 19 19 19 19 18 17 17 17 17 17 17 18 20 21 22
17 16 15 15 13 10 11 12 11 10 8 8 8 7 6 5 5 5 5 7 9 10 12 13 14 16 17 18 18 19 19 19 20 20 19 19 19 19 17 16 16 16 16 16 16 17 18 19 21
15 15 14 13 12 10 10 10 9 8 8 7 8 7 6 6 5 5 5 7 8 10 12 13 14 16 17 18 18 19 19 20 20 20 20 19 19 18 16 15 14 14 14 14 15 15 16 18 19
15 14 12 11 8 8 9 9 9 8 7 7 7 7 6 5 4 4 5 7 8 10 11 13 14 15 17 18 19 19 20 20 21 21 20 19 18 17 15 13 13 13 13 13 14 14 15 16 17
14 14 13 11 9 8 9 9 8 7 6 7 7 7 6 5 4 5 5 6 8 9 10 12 14 15 17 18 19 19 20 20 21 21 20 19 18 17 15 13 12 11 11 11 11 11 13 14 16
15 14 12 9 8 8 9 9 7 7 6 7 7 7 7 6 5 5 6 6 7 9 10 12 14 16 17 19 19 20 20 21 21 21 20 19 18 16 15 13 11 10 10 10 10 9 10 12 14
14 12 10 8 7 7 7 7 7 7 6 7 7 7 7 7 6 6 6 7 7 8 10 12 14 16 17 18 19 19 20 21 21 21 20 19 18 17 15 14 12 10 9 9 8 8 9 10 12
12 11 9 8 8 7 7 6 9 9 7 6 7 8 8 7 7 7 7 7 8 9 10 11 13 15 17 18 19 19 20 21 21 21 21 19 18 17 15 14 12 11 10 8 7 7 7 9 10
10 8 6 5 6 6 6 6 8 9 7 7 8 8 8 8 8 7 7 7 8 9 10 11 13 15 16 18 19 19 20 20 21 21 21 20 19 17 16 14 12 11 9 8 7 6 6 7 9
8 7 4 3 3 4 6 7 9 9 9 9 9 8 8 8 8 8 8 8 8 9 10 11 12 14 16 17 18 19 20 20 20 21 21 20 19 17 17 15 13 11 9 8 6 5 4 5 7
8 7 5 2 1 3 6 8 11 10 9 9 9 9 9 8 9 9 8 8 9 9 10 11 12 13 15 16 17 19 20 20 20 21 21 21 19 18 17 15 13 11 9 8 6 5 4 4 5
7 6 5 3 1 1 5 10 12 9 9 9 9 9 9 9 9 9 9 9 9 9 10 11 12 13 14 15 17 18 19 20 20 20 21 21 20 19 18 16 14 11 9 8 6 5 4 3 3
5 5 5 5 4 3 4 9 13 11 9 10 10 10 10 10 10 10 10 10 9 9 10 11 11 12 13 14 16 17 18 19 20 20 20 20 20 19 19 17 15 12 10 9 7 5 4 3 2
5 5 5 5 5 5 7 10 13 14 12 11 11 10 10 11 11 11 11 10 10 10 10 10 11 12 13 14 15 16 17 18 19 20 20 20 20 19 18 17 16 13 11 9 8 6 4 3 3
6 6 7 7 7 8 10 12 13 14 13 12 12 12 11 11 12 12 11 11 10 10 10 10 11 11 12 13 14 15 16 18 18 19 20 20 19 19 18 17 16 15 13 10 9 7 5 3 3
Wind_Direction
319 322 324 325 324 318 315 300 289 272 284 284 283 280 278 284 286 285 287 290 293 293 293 291 290 288 284 281 279 278 276 276 272 265 263 262 262 260 259 257 254 253 252 251 249 248 246 248 248
308 312 310 308 311 306 301 296 277 278 279 285 286 285 286 285 285 287 287 289 293 295 294 291 291 290 290 287 284 280 279 278 275 270 266 264 264 263 260 258 256 254 254 254 252 251 249 248 247
296 299 302 300 298 302 302 292 287 283 287 288 286 285 287 287 288 289 291 292 294 295 295 295 293 292 291 291 288 284 284 282 278 275 273 270 266 265 263 262 258 256 255 255 253 251 249 248 246
285 290 293 291 290 302 304 302 291 285 286 286 289 292 290 289 290 291 294 297 296 295 296 299 297 296 295 296 294 291 286 284 281 276 273 272 271 270 266 264 262 259 257 256 254 251 248 246 246
274 281 285 286 291 295 298 300 294 287 283 286 292 295 293 291 292 294 297 299 300 299 298 300 301 301 300 299 296 293 290 288 285 279 275 272 272 270 268 265 262 260 259 258 255 251 249 246 245
267 269 276 281 286 283 284 293 297 292 289 286 289 292 294 293 296 298 302 303 305 305 304 305 305 305 305 304 301 296 293 290 286 282 278 275 273 272 268 265 263 261 261 257 255 253 250 247 245
260 264 269 271 278 283 286 287 293 289 290 286 284 287 291 292 294 297 301 306 309 310 312 313 313 313 314 313 310 306 302 297 291 286 282 279 277 274 272 268 264 262 261 258 255 254 251 249 248
258 260 264 266 272 281 284 287 292 292 287 286 285 288 288 289 294 298 303 309 314 318 321 322 323 323 322 320 318 314 308 303 299 294 289 284 279 278 276 272 268 265 262 260 257 253 250 248 247
254 258 262 263 265 274 280 286 286 290 291 285 283 286 287 290 297 304 308 313 316 320 325 329 332 332 332 330 326 321 317 311 306 301 295 290 286 282 279 275 270 266 264 262 259 254 248 247 245
250 253 258 262 266 272 279 282 284 289 289 286 282 279 284 289 297 305 314 319 321 325 332 336 338 338 336 334 331 327 324 318 314 309 303 297 292 288 285 280 274 269 265 263 259 254 249 245 243
248 254 259 263 271 274 280 281 283 287 286 290 288 286 291 292 300 308 316 320 327 335 339 341 341 340 337 336 335 331 327 322 317 313 309 304 298 292 288 284 279 274 268 265 261 254 250 246 242
248 251 258 263 268 272 275 278 280 283 288 294 294 290 291 295 301 309 318 328 334 340 342 342 341 341 340 338 337 333 329 325 321 317 313 309 304 298 292 287 282 276 270 265 261 255 250 246 242
245 247 252 258 263 270 272 274 280 283 282 285 290 285 289 295 298 309 322 333 339 341 342 342 341 342 341 340 338 336 333 330 324 319 315 312 307 301 295 289 284 278 271 266 262 258 252 249 244
241 242 247 254 262 268 272 275 277 277 277 279 284 285 291 299 305 312 326 334 339 342 344 344 344 343 342 341 340 339 337 334 329 324 319 315 311 305 299 293 286 279 274 268 264 258 253 250 245
234 241 245 251 260 265 268 270 273 272 270 274 280 282 286 293 307 315 321 331 338 342 344 345 345 344 343 342 342 341 338 336 333 329 325 320 315 309 301 295 289 282 276 271 265 259 255 251 247
232 240 244 248 257 258 263 269 269 272 269 275 277 277 281 287 298 308 318 328 335 339 342 344 345 346 345 343 343 342 341 338 336 333 329 325 320 314 306 298 291 285 279 273 267 260 254 251 246
232 238 245 250 255 257 264 269 270 265 266 272 274 270 271 278 287 300 313 326 331 337 341 343 346 347 346 346 345 343 343 342 339 336 333 329 325 320 312 301 293 289 283 276 269 262 255 249 244
225 232 238 250 253 257 267 271 272 271 265 267 271 269 261 270 279 293 311 325 331 336 340 343 345 347 348 348 347 346 345 344 342 339 336 333 330 326 318 306 298 292 285 279 272 264 256 248 243
223 227 233 248 250 256 267 273 275 270 266 269 268 265 264 269 278 293 310 325 330 335 340 343 346 348 348 349 348 347 347 345 344 344 341 338 335 333 328 318 307 299 291 284 276 266 255 247 241
223 228 237 242 248 253 264 274 266 260 261 268 268 263 265 269 277 291 308 322 330 338 343 345 347 349 349 350 350 349 349 348 347 346 345 343 339 336 332 328 319 309 299 292 282 269 254 246 240
223 227 232 244 246 255 267 274 265 258 259 265 263 259 262 269 274 284 302 319 329 337 341 344 346 348 349 350 350 350 350 350 349 348 347 346 344 341 338 335 330 321 309 300 289 273 256 247 240
221 225 235 242 248 266 273 284 286 276 269 264 256 254 258 265 275 285 300 313 323 331 337 340 343 346 348 350 351 352 352 351 350 350 349 347 347 345 343 340 335 328 320 312 298 277 260 249 241
220 224 234 240 249 266 279 282 284 283 268 260 256 253 256 262 272 283 294 306 318 325 331 337 341 345 347 350 352 352 353 353 353 353 353 351 349 349 347 344 339 333 323 315 303 281 263 251 242
209 209 219 238 253 265 278 277 279 277 278 268 260 257 257 262 270 279 289 301 313 321 328 334 338 343 346 350 352 353 353 354 355 356 356 355 353 352 350 347 343 340 333 323 312 292 271 253 242
200 204 217 242 264 284 284 280 264 272 283 273 262 257 259 263 268 276 285 296 307 316 323 330 336 341 345 349 352 354 355 356 357 358 359 358 357 356 354 352 349 346 343 337 326 309 286 258 244
196 209 220 223 298 306 306 293 279 285 278 268 262 260 263 265 269 275 282 291 301 310 318 326 333 338 343 348 352 355 357 357 358 360 1 1 1 0 358 357 354 351 347 343 341 332 307 269 251
203 220 236 250 320 336 309 299 294 282 271 266 264 262 264 266 270 274 280 287 296 304 313 322 330 336 341 346 351 354 357 359 360 1 2 3 4 4 3 2 0 357 353 347 342 338 327 298 261
227 230 230 230 241 219 258 284 286 294 284 274 269 265 264 268 271 273 278 284 291 299 308 318 326 333 338 343 348 353 356 358 0 2 2 3 5 6 7 6 5 2 0 358 355 348 336 319 285
235 241 247 248 246 239 236 252 275 290 287 277 270 267 267 269 271 273 275 280 286 294 303 312 321 329 335 340 345 349 354 357 359 2 2 3 4 5 6 7 9 7 4 2 360 354 341 321 301
258 255 250 250 247 250 259 272 280 287 282 275 271 271 272 271 271 272 274 276 281 288 298 307 316 324 330 336 341 345 351 355 357 0 2 4 5 5 5 6 9 11 10 6 3 360 350 335 312
Height
5869 5868 5868 5868 5868 5867 5866 5865 5865 5865 5866 5866 5866 5866 5866 5867 5867 5869 5866 5865 5865 5865 5864 5864 5863 5862 5862 5861 5861 5861 5861 5860 5860 5860 5860 5860 5861 5861 5861 5861 5862 5862 5863 5864 5864 5865 5866 5866 5867
5869 5868 5868 5868 5867 5866 5865 5864 5864 5865 5865 5865 5864 5865 5865 5865 5865 5865 5864 5864 5863 5863 5862 5862 5861 5860 5860 5859 5859 5858 5858 5858 5857 5857 5858 5858 5858 5858 5858 5858 5859 5859 5860 5861 5861 5862 5863 5863 5864
5868 5868 5868 5867 5866 5865 5864 5864 5864 5864 5864 5864 5864 5864 5864 5864 5864 5863 5862 5862 5862 5862 5861 5860 5859 5858 5857 5857 5856 5855 5855 5855 5854 5854 5854 5854 5854 5855 5855 5855 5855 5856 5856 5857 5858 5859 5860 5860 5861
5867 5867 5867 5867 5865 5864 5863 5863 5863 5863 5863 5862 5862 5863 5862 5862 5862 5862 5861 5861 5861 5860 5859 5858 5857 5856 5855 5854 5853 5853 5852 5851 5851 5851 5851 5850 5850 5850 5851 5851 5851 5852 5852 5853 5854 5855 5856 5857 5858
5865 5866 5866 5865 5863 5863 5862 5862 5861 5862 5862 5861 5861 5861 5861 5861 5861 5860 5860 5859 5859 5858 5857 5856 5854 5853 5852 5851 5850 5849 5849 5848 5847 5847 5846 5846 5846 5846 5846 5846 5847 5847 5848 5849 5850 5851 5852 5854 5855
5864 5864 5864 5863 5862 5861 5861 5861 5861 5860 5860 5860 5860 5860 5860 5860 5859 5859 5858 5858 5857 5856 5855 5853 5852 5851 5850 5848 5847 5846 5845 5844 5843 5842 5842 5841 5841 5841 5841 5841 5841 5842 5843 5844 5845 5847 5848 5850 5851
5862 5861 5861 5861 5860 5860 5860 5859 5859 5859 5859 5859 5858 5859 5858 5858 5858 5857 5856 5856 5855 5854 5852 5851 5850 5848 5847 5845 5844 5843 5841 5840 5839 5838 5837 5837 5836 5836 5836 5836 5836 5837 5838 5839 5840 5842 5843 5845 5847
5858 5860 5859 5858 5858 5858 5858 5858 5858 5858 5857 5857 5857 5857 5857 5857 5856 5855 5855 5854 5853 5852 5850 5849 5848 5846 5845 5843 5841 5839 5838 5836 5835 5834 5833 5832 5831 5831 5830 5830 5831 5832 5832 5833 5835 5836 5838 5840 5842
5855 5857 5856 5856 5856 5856 5856 5856 5856 5856 5856 5855 5855 5856 5855 5855 5854 5854 5853 5852 5851 5850 5849 5847 5846 5844 5842 5841 5839 5836 5835 5833 5831 5830 5828 5827 5827 5826 5825 5825 5825 5826 5827 5828 5829 5831 5833 5835 5837
5852 5853 5853 5852 5852 5854 5854 5854 5854 5854 5854 5854 5854 5853 5853 5853 5853 5853 5852 5851 5850 5849 5847 5846 5844 5842 5840 5838 5836 5834 5832 5830 5828 5826 5825 5823 5822 5821 5820 5820 5820 5820 5821 5822 5823 5825 5827 5830 5832
5848 5850 5849 5849 5850 5852 5852 5853 5852 5852 5852 5852 5852 5851 5851 5852 5851 5851 5850 5849 5848 5847 5846 5844 5843 5841 5838 5836 5834 5832 5829 5827 5825 5823 5821 5820 5818 5817 5816 5815 5815 5815 5815 5816 5817 5819 5821 5824 5826
5846 5846 5847 5848 5849 5850 5850 5850 5851 5850 5851 5851 5851 5850 5850 5850 5850 5850 5849 5848 5847 5846 5845 5843 5841 5839 5837 5834 5832 5829 5827 5824 5822 5820 5818 5816 5814 5812 5811 5810 5810 5810 5810 5811 5812 5813 5816 5818 5821
5842 5843 5844 5845 5846 5847 5848 5849 5849 5849 5849 5849 5849 5849 5849 5849 5849 5848 5848 5847 5846 5845 5844 5842 5840 5838 5835 5833 5830 5827 5824 5822 5819 5817 5814 5812 5810 5808 5807 5806 5805 5805 5805 5805 5806 5808 5810 5812 5815
5839 5839 5841 5843 5845 5846 5846 5847 5847 5847 5848 5848 5848 5848 5848 5847 5847 5847 5847 5846 5845 5844 5843 5841 5839 5836 5834 5831 5828 5825 5822 5819 5816 5813 5810 5808 5806 5804 5802 5801 5800 5799 5799 5800 5801 5802 5804 5806 5809
5834 5836 5839 5841 5842 5843 5845 5845 5845 5845 5845 5846 5847 5847 5847 5846 5846 5846 5846 5845 5845 5843 5842 5840 5838 5835 5833 5830 5826 5823 5820 5817 5813 5810 5807 5804 5801 5799 5797 5796 5795 5795 5794 5795 5795 5796 5798 5800 5803
5832 5835 5837 5839 5840 5841 5844 5843 5843 5843 5844 5844 5845 5846 5845 5846 5846 5845 5845 5844 5844 5843 5841 5839 5836 5834 5831 5828 5825 5821 5818 5815 5811 5808 5804 5801 5798 5795 5793 5791 5790 5790 5789 5790 5790 5791 5792 5794 5797
5830 5833 5835 5837 5836 5838 5840 5841 5841 5841 5842 5843 5844 5844 5844 5845 5845 5844 5844 5843 5843 5842 5840 5838 5836 5833 5830 5827 5823 5820 5816 5813 5809 5805 5801 5798 5794 5791 5788 5787 5786 5785 5785 5785 5785 5786 5787 5789 5791
5828 5830 5832 5833 5835 5837 5838 5839 5839 5839 5841 5842 5842 5843 5843 5843 5844 5843 5843 5842 5842 5841 5839 5837 5835 5832 5829 5826 5822 5819 5815 5811 5807 5803 5799 5795 5791 5788 5785 5783 5782 5781 5780 5780 5780 5781 5782 5784 5786
5825 5827 5829 5831 5832 5835 5837 5837 5838 5838 5839 5840 5841 5841 5842 5842 5842 5842 5842 5841 5841 5839 5838 5836 5834 5831 5828 5825 5821 5817 5814 5810 5805 5801 5797 5793 5789 5785 5782 5780 5779 5778 5777 5776 5776 5776 5778 5779 5782
5823 5826 5828 5829 5832 5834 5835 5836 5836 5836 5838 5839 5840 5840 5840 5841 5841 5841 5841 5840 5840 5838 5837 5835 5833 5830 5827 5824 5820 5816 5812 5808 5804 5799 5795 5791 5787 5784 5781 5778 5776 5775 5774 5773 5772 5773 5774 5775 5778
5822 5825 5826 5828 5831 5833 5834 5834 5834 5835 5836 5837 5838 5839 5839 5840 5840 5840 5840 5839 5839 5837 5836 5834 5832 5829 5826 5823 5819 5815 5811 5807 5803 5798 5794 5790 5786 5782 5779 5777 5774 5773 5771 5770 5770 5770 5771 5772 5774
5821 5823 5825 5828 5830 5831 5833 5833 5833 5834 5835 5836 5837 5838 5838 5839 5839 5839 5839 5838 5837 5836 5835 5833 5831 5828 5825 5822 5818 5814 5810 5806 5802 5798 5793 5789 5785 5781 5778 5775 5773 5771 5770 5768 5767 5767 5768 5769 5771
5821 5824 5826 5828 5830 5831 5832 5833 5834 5833 5834 5835 5836 5837 5837 5838 5838 5838 5838 5837 5836 5835 5834 5832 5830 5827 5824 5821 5818 5814 5810 5806 5801 5797 5792 5788 5784 5781 5777 5774 5772 5770 5768 5767 5766 5765 5765 5767 5768
5821 5824 5826 5828 5829 5830 5831 5832 5833 5832 5832 5833 5834 5835 5836 5836 5836 5836 5836 5836 5835 5834 5833 5831 5829 5827 5824 5820 5817 5813 5809 5805 5801 5797 5792 5788 5784 5780 5777 5773 5771 5768 5766 5765 5764 5763 5763 5764 5766
5822 5824 5826 5827 5828 5830 5831 5832 5832 5831 5832 5832 5833 5834 5834 5835 5835 5835 5835 5835 5834 5833 5831 5830 5828 5826 5823 5820 5817 5813 5809 5805 5801 5796 5792 5788 5783 5780 5776 5773 5770 5768 5766 5764 5763 5762 5762 5763 5764
5822 5824 5826 5827 5828 5829 5830 5830 5831 5831 5831 5831 5832 5832 5833 5833 5833 5833 5833 5833 5832 5831 5830 5829 5827 5824 5822 5819 5816 5813 5809 5805 5801 5797 5792 5788 5784 5780 5776 5772 5769 5767 5765 5764 5762 5762 5762 5762 5763
5822 5823 5825 5827 5827 5829 5831 5830 5829 5829 5830 5830 5830 5831 5831 5831 5832 5832 5832 5831 5831 5830 5829 5827 5826 5823 5821 5818 5816 5812 5809 5805 5801 5797 5792 5788 5784 5780 5776 5773 5770 5767 5765 5763 5762 5762 5761 5761 5762
5823 5824 5825 5826 5827 5829 5831 5830 5828 5827 5828 5829 5829 5829 5829 5829 5830 5830 5830 5829 5829 5828 5827 5826 5824 5822 5820 5818 5815 5812 5809 5805 5801 5797 5793 5789 5785 5781 5777 5773 5770 5768 5765 5764 5762 5761 5761 5761 5762
5823 5824 5825 5826 5827 5827 5828 5830 5827 5826 5826 5826 5826 5826 5827 5827 5827 5828 5828 5827 5827 5826 5826 5824 5823 5821 5819 5817 5814 5812 5808 5805 5801 5797 5793 5789 5785 5782 5778 5775 5771 5768 5766 5764 5763 5762 5761 5761 5761
5822 5822 5823 5824 5825 5825 5826 5829 5825 5824 5824 5824 5824 5824 5824 5825 5825 5825 5825 5825 5825 5824 5824 5823 5821 5820 5818 5816 5813 5811 5808 5805 5801 5798 5794 5790 5786 5782 5779 5776 5772 5770 5767 5765 5763 5762 5761 5761 5761